Regional Weather Roundup
Issued by NWS Wakefield, VA

Home | Current Version | Previous Version | Text Only | Print | Product List | Glossary On
Versions: 1 2 3 4 5 6 7 8 9 10 11 12 13 14 15 16 17 18 19 20 21 22 23 24 25 26 27 28 29 30 31 32 33 34 35 36 37 38 39 40 41 42 43 44 45 46 47 48 49 50
000
ASUS41 KAKQ 061915
RWRAKQ

REGIONAL WEATHER ROUNDUP
NATIONAL WEATHER SERVICE WAKEFIELD VA
300 PM EDT FRI MAY 06 2016

Note: "fair" indicates few or no clouds below 12,000 feet with no
significant weather and/or obstructions to visibility. * = Denotes
station may not report precipitation (e.g., rain,snow,etc.),
thunder or fog.

VAZ042-051-052>054-056-062000-
NORTHERN VIRGINIA

CITY           SKY/WX    TMP DP  RH WIND       PRES   REMARKS
WASH NATIONAL  LGT RAIN  53  49  86 VRB7      29.68F FOG
DULLES         RAIN      52  49  89 CALM      29.69S FOG
FORT BELVOIR   LGT RAIN  52  48  87 W5        29.69S
QUANTICO       LGT RAIN  53  48  83 NE8       29.71R
FREDERICKSBRG* HVY RAIN  54  54 100 NE8G20    29.70R
STAFFORD*      RAIN      50  47  89 NE5G10    29.75R
WARRENTON      RAIN      55  49  78 N8        29.70R
CULPEPER*      HVY RAIN  55  53  91 N5        29.71S
MANASSAS*      RAIN      52  50  93 N7        29.70S
LEESBURG*      RAIN      54  54 100 N13G20    29.70S
WINCHESTER     RAIN      52  48  87 N3        29.72S
FRONT ROYAL*   CLOUDY    52  50  93 N3        29.72R
LURAY*         LGT RAIN  54  54 100 CALM      29.72S
$$

VAZ048-049-060>072-079>083-062000-
CENTRAL AND SOUTH CENTRAL VIRGINIA

CITY           SKY/WX    TMP DP  RH WIND       PRES   REMARKS
RICHMOND       LGT RAIN  56  51  84 NW7       29.69R
CHESTERFIELD*  MOCLDY    55  43  62 NW10      29.71R
PETERSBURG*    CLOUDY    60  52  75 NW8       29.71S
HANOVER        RAIN      52  50  93 VRB3      29.72R FOG
TAPPAHANNOCK*  RAIN      54  52  95 S3        29.69S
QUINTON*       CLOUDY    55  52  90 MISG      29.68R
CHARLOTTSVILLE CLOUDY    58  48  69 N3        29.71S
GORDONSVILLE*  CLOUDY    55  53  92 CALM      29.71S
ORANGE*        RAIN      55  54  94 NE6       29.73S
LOUISA*        DRIZZLE   57  55  94 NW9       29.70S
BUMPASS*       CLOUDY    55  52  91 NW7       29.71R
FARMVILLE*     CLOUDY    61  51  67 NW3       29.71R
CREWE*         CLOUDY    59  58  96 NW5       29.71S
FORT PICKETT*  NOT AVBL
CHASE CITY*    MOCLDY    61  50  65 NW10      29.73R
CLARKSVILLE*   CLOUDY    59  50  72 NW7       29.74R
SOUTH HILL*    CLOUDY    62  51  69 NW5       29.77S
LAWRENCEVILLE* CLOUDY    57  54  90 NW6       29.71R
EMPORIA*       CLOUDY    59  50  72 W8        29.72S
$$

VAZ088>098-062000-
SOUTHEAST VIRGINIA

CITY           SKY/WX    TMP DP  RH WIND       PRES   REMARKS
NORFOLK        FAIR      57  48  72 SW6       29.69F
VIRGINIA BEACH CLOUDY    60  50  69 S6        29.69S
NORFOLK NAVAL  PTSUNNY   58  48  69 W7        29.71S
WEST POINT*    CLOUDY    53  49  87 CALM      29.70S
SALUDA*        CLOUDY    51  49  91 CALM      29.69S
NEWPORT NEWS   CLOUDY    58  50  75 SW6       29.69S
LANGLEY AFB    CLOUDY    57  50  77 SW7       29.69S
FORT EUSTIS    PTSUNNY   57  52  83 SW3       29.68S
WILLIAMSBURG*  FAIR      59  52  77 SW6       29.70S
HR EXEC AP*    FAIR      59  52  77 W7        29.72S
FRANKLIN*      CLOUDY    59  49  70 W6        29.70F
US460-WAKEFLD  PTSUNNY   59  50  72 SW6       29.69S
$$

VAZ020-022-025-037-045-062000-
WEST CENTRAL AND SOUTHWEST VIRGINIA

CITY           SKY/WX    TMP DP  RH WIND       PRES   REMARKS
STAUNTON*      DRIZZLE   58  48  69 NW6       29.74S
WAYNESBORO*    CLOUDY    54  49  83 CALM      29.72F
HOT SPRINGS VA DRIZZLE   49  38  66 NW14G28   29.76R
LYNCHBURG      LGT RAIN  55  50  83 N6        29.74R
DANVILLE       PTSUNNY   63  50  62 NE7       29.74S
SOUTH BOSTON*  MOCLDY    64  52  65 NW7       29.73S
MARTINSVILLE   CLOUDY    61  42  51 NW14G20   29.79F
ROANOKE        PTSUNNY   61  42  49 NW15G23   29.78S
BLACKSBURG     CLOUDY    59  42  54 N13G21    29.82F
DUBLIN*        CLOUDY    60  42  51 N15G25    29.82S
MARION*        FAIR      57  45  62 NW9G18    29.88F
HILLSVILLE*    CLOUDY    55  39  53 NW20G29   29.80S
RICHLANDS*     HVY RAIN  53  39  61 NW17G24   29.89S
WISE*          CLOUDY    55  36  47 NW10G18   29.92S
ABINGDON*      CLOUDY    58  42  56 NW5       29.90F
$$

MDZ021>025-VAZ099-100-062000-
SOUTHERN MARYLAND AND THE DELMARVA PENINSULA

CITY           SKY/WX    TMP DP  RH WIND       PRES   REMARKS
PATUXENT RIVER LGT RAIN  51  46  83 W6        29.67F
BAY BRIDGE APT LGT RAIN  52  50  93 NW6       29.66
LEONARDTOWN    CLOUDY    50  45  81 W5        29.69S
DOVER          DRIZZLE   52  52 100 VRB1      29.63S FOG
GEORGETOWN     CLOUDY    53  47  79 SW5       29.66R
EASTON         DRIZZLE  N/A N/A N/A W7        29.69S
CAMBRIDGE        N/A     48  46  93 W5        29.66S
SALISBURY      HVY RAIN  51  49  92 SW7       29.66S FOG
OCEAN CITY     LGT RAIN  51  49  92 S8        29.67S
WALLOPS ISLAND LGT RAIN  52  50  93 S9        29.68S FOG
ACCOMACK*      LGT RAIN N/A N/A N/A W7        29.68S
$$

NCZ012>017-030>032-062000-
NORTH CENTRAL AND EASTERN NORTH CAROLINA

CITY           SKY/WX    TMP DP  RH WIND       PRES   REMARKS
ROANOKE RAPIDS RAIN      55  54  94 N3        29.71S
RALEIGH        PTSUNNY   63  49  60 NW10G18   29.75S
ELIZABETH CITY CLOUDY    59  52  77 VRB5      29.70F
AHOSKIE*       PTSUNNY   58  53  85 CALM      29.72R
EDENTON*       CLOUDY    62  54  73 NW9       29.72R
CURRITUCK*     DRIZZLE   57  53  85 CALM      29.71F
KILL DEVIL HLS CLOUDY    60  53  77 N5        29.70R
MANTEO         CLOUDY    59  53  79 NW8       29.71R
CAPE HATTERAS  PTSUNNY   60  51  72 SW12      29.72R
TARBORO*       FAIR      63  52  68 NW8       29.73S
GOLDSBORO      LGT RAIN  59  59 100 NW7       29.72S FOG
WASHINGTON     PTSUNNY   62  49  62 NW5       29.71S
GREENVILLE     CLOUDY    61  54  77 W9        29.75S
NEW BERN       PTSUNNY   63  50  62 W8        29.73S
WILMINGTON     PTSUNNY   66  49  54 NW15G23   29.76S
$$

VAZ048-062000-
ELSEWHERE

CITY           SKY/WX    TMP DP  RH WIND       PRES   REMARKS
HARRISBURG PA  RAIN      53  49  86 N8        29.66F
BALTIMORE      LGT RAIN  51  48  89 CALM      29.65S FOG
ANNAPOLIS      LGT RAIN  52  49  89 W5        29.66S FOG
ANDREWS AFB    RAIN      51  48  90 W8        29.66F
PHILADELPHIA   DRIZZLE   52  48  86 N14       29.64F FOG
HENDERSON NC   MOSUNNY   60  46  60 N12G17    29.73S
GREENSBORO     LGT RAIN  64  43  46 NW14G21   29.76S
ROCKY MOUNT    MOSUNNY   63  52  67 N10       29.72S
$$

VAZ100-062000-
MARINE

STATION/POSITION TIME  TEMP    WIND        PRES    WAVE   SWELL
                       AIR SEA DIR/SP/G            HT/PER HT/PER
                 (UTC) (F)     (DEG/KT/KT) (MB)    (FT/S) (FT/S)
BRANDYWINE LGT   1800   50     290/  9/ 10 1003.5R
CAPE MAY NJ      1800   52 56  260/  6/  7 1003.1R
LEWES DE         1800   52 54  310/  5/  6 1003.6R
15NM E FENWICK I 1850   51 52              1004.7R   7/ 8
OCEAN-CITY-INLET 1800   51 54  210/ 10/ 12 1003.8R
WACHAPREAGUE VA  1800   52 57  250/  5/ 10 1004.4S
THOMAS POINT MD  1900   50 57  260/  6/  8 1005.6F
GOOSES REEF MD   1800   51 57  340/  6/ 10 1005.7S   1
COVE POINT MD    1800   49     360/  5/  6 1005.2S
SOLOMONS ISLAND  1800   50 59  300/  2/  5   N/A
BISHOPS HEAD MD  1800   51 58  270/  7/  9 1004.0R
PINEY POINT MD   1800          330/  4/  5   N/A
POTOMAC MD       1800   51 58  310/  4/  6 1003.9R   1
CAMBRIDGE MD     1800   51 60  300/  6/  8 1003.6R
LEWISETTA VA     1800   51 60  280/  4/  5 1004.8R
RAPPAHANNOCK LGT 1800          280/  8/  9 1005.5R
STINGRAY PT      1800   52 60  310/  4/  6 1005.5R   1
YORK RVR RNG VA  1800   53     260/  4/  5 1004.7F
YORKTOWN VA      1800   54 62   CALM  /  2 1005.0F
JAMESTOWN VA     1800   54 66  210/  4/  6   N/A     0
DOMINION TERM VA 1800   54     300/  4/  6 1005.4S
KIPTOPEKE VA     1800      59  290/ 12/ 15   N/A
CHES BAY BRIDGE  1800   54 61  260/  7/  8 1005.1R
CAPE HENRY VA    1800   53     270/  7/ 10   N/A
CHESAPEAKE LGHT  1800   52     220/  9/ 10 1006.3S
WILLOUBY STN VA  1800   54     280/  7/  8 1006.3R
CAPE HENRY BUOY  1812      56                N/A     4/ 8   2/12
CAPE CHARLES BUO 1826      56                N/A     4/ 8   3/ 8
OFFSHORE WE BUOY 1821      54                N/A     5/ 8   5/ 7
64NM E OF VA BCH 1850   53 53  160/  6/  6 1006.0R   6/ 9   7/ 9
DUCK PIER NC     1800   58 60   80/  3/  4 1005.3R
44100 DUCK FRF   1824      57                N/A     4/ 8   2/11
44056 DUCK FRF   1811      60                N/A     4/ 8   2/11
OREGON INLET NC  1800   59 60  190/ 14/ 15 1005.0S
HATTERAS NC      1800   60 65  210/ 10/ 13 1005.9
DIAMOND SHLS NC  1850   61 75  260/ 16/ 19 1006.4R   6/ 9   5/ 9
CAPE LOOKOUT NC  1800   60     280/ 12/ 14 1006.4R
$C1F1C2F2C3F3C4F4C5F5C6F6C7F7C8M1C9!


USA.gov is the U.S. government's official web portal to all federal, state and local government web resources and services.